Regional Weather Roundup
Issued by NWS

Home | Current Version | Previous Version | Graphics & Text | Print | Product List | Glossary On
Versions: 1 2 3 4 5 6 7 8 9 10 11 12 13 14 15 16 17 18 19 20 21 22 23 24 25 26 27 28 29 30 31 32 33 34 35 36 37 38 39 40 41 42 43 44 45 46 47 48 49 50
000
ASUS45 KPSR 240110
RWRAZ

ARIZONA HOURLY REGIONAL WEATHER ROUNDUP
NATIONAL WEATHER SERVICE PHOENIX AZ
600 PM MST THU NOV 23 2017

NOTE: FAIR INDICATES FEW OR NO CLOUDS BELOW 12,000 FEET WITH NO
SIGNIFICANT WEATHER AND/OR OBSTRUCTIONS TO VISIBILITY.

AZZ001>003-036-240200-
NORTHWEST ARIZONA

CITY           SKY/WX    TMP DP  RH WIND       PRES   REMARKS
BULLHEAD CITY  CLEAR     81  34  18 NE8       29.94S
KINGMAN        CLEAR     65  29  25 NE5       30.09S
$$

AZZ004>008-015-016-018-240200-
NORTH CENTRAL ARIZONA

CITY           SKY/WX    TMP DP  RH WIND       PRES   REMARKS
GRAND CANYON   PTCLDY    44  17  33 NE3       30.27S
WILLIAMS       CLEAR     55  16  21 E3        30.27S
PRESCOTT       MOCLDY    62  26  25 SW6       30.16S
FLAGSTAFF      PTCLDY    50  29  44 CALM      30.29S
PAYSON         PTCLDY    64  27  24 S6        30.17S
PAGE           MOCLDY    54  32  43 SW3       30.16S
$$

AZZ009>014-017-240200-
NORTHEAST ARIZONA

CITY           SKY/WX    TMP DP  RH WIND       PRES   REMARKS
WINSLOW        MOCLDY    52  25  35 CALM      30.19S
SAINT JOHNS    MOCLDY    50  23  34 W5        30.22S
WINDOW ROCK    MOCLDY    52  25  35 CALM      30.27R
SHOW LOW       MOCLDY    55  27  33 N5        30.28R
$$

AZZ540-542>544-546-548-240200-
GREATER PHOENIX AREA

CITY           SKY/WX    TMP DP  RH WIND       PRES   REMARKS
PHOENIX        PTCLDY    82  36  19 CALM      29.92S
BUCKEYE        CLEAR     75  37  25 CALM      29.93S
GLENDALE       PTCLDY    81  39  22 CALM      29.94S
LUKE AFB       CLEAR     76  39  25 CALM      29.91F
DEER VALLEY    CLEAR     78  34  20 CALM      29.94S
SCOTTSDALE     CLEAR     78  40  25 CALM      29.96S
MESA-FALCON    PTCLDY    79  43  27 CALM      29.95S
CHANDLER       CLEAR     79  37  22 CALM      29.94S
$$

AZZ539-553-240200-
SOUTHWEST MARICOPA COUNTY AND PINAL COUNTY

CITY           SKY/WX    TMP DP  RH WIND       PRES   REMARKS
CASA GRANDE    NOT AVBL
$$

AZZ503-504-507>509-240200-
SOUTHEAST ARIZONA

CITY           SKY/WX    TMP DP  RH WIND       PRES   REMARKS
TUCSON         CLEAR     78  26  14 N5        30.02R
DAVIS-MONTHAN  CLEAR     75  26  16 N7        30.00S
RYAN FIELD     CLEAR     75  27  16 NW8       30.01R
NOGALES        CLEAR     70  24  17 CALM      30.07S
SIERRA VISTA   CLEAR     63  23  22 SW8       30.15S
DOUGLAS        CLEAR     63  21  20 N7        30.12R
SAFFORD        CLEAR     64  20  18 NE3       30.06S
$$

AZZ532-240200-
SOUTHWEST ARIZONA

CITY           SKY/WX    TMP DP  RH WIND       PRES   REMARKS
YUMA           CLEAR     82  38  20 N3        29.89F
$$

CAZ041-043-047-048-061-525>527-560>570-240200-
SOUTHERN CALIFORNIA

CITY           SKY/WX    TMP DP  RH WIND       PRES   REMARKS
DOWNTOWN L.A.  PTCLDY    78  43  28 CALM      29.90S
L.A. AIRPORT   PTCLDY    72  54  53 W8        29.91S
SAN DIEGO      PTCLDY    78  44  29 NW5       29.92S
BURBANK        PTCLDY    84  41  21 CALM      29.92S
ONTARIO        PTCLDY    85  39  19 SW7       29.93S
RIVERSIDE      CLEAR     84  44  24 W5        29.92S
PALM SPRINGS   CLEAR     84  44  24 CALM      29.93S
EL CENTRO NAS  CLEAR     82  46  28 CALM      29.90F
IMPERIAL       CLEAR     82  39  21 CALM      29.88S
BLYTHE         PTCLDY    80  40  23 CALM      29.92S
NEEDLES        CLEAR     77  34  21 W5        29.95F
$$

NVZ020-UTZ003-240200-
SOUTHERN NEVADA-UTAH

CITY           SKY/WX    TMP DP  RH WIND       PRES   REMARKS
LAS VEGAS      PTCLDY    74  38  27 CALM      30.03S
SALT LAKE CITY CLOUDY    53  44  71 S6        30.09F
$$

NMZ009-TXZ055-240200-
NEW MEXICO-WEST TEXAS

CITY           SKY/WX    TMP DP  RH WIND       PRES   REMARKS
ALBUQUERQUE    CLOUDY    57  30  35 CALM      30.19S
EL PASO        PTCLDY    65  28  24 S3        30.13S
$$


........................KEY........................
SKY/WX - SKY CONDITION/WEATHER
TMP    - TEMPERATURE IN FAHRENHEIT
DP     - DEW POINT IN FAHRENHEIT
RH     - RELATIVE HUMIDITY IN PERCENT
WIND   - DIRECTION AND SPEED IN MILES PER HOUR (MPH)
VRB    - VARIABLE WIND DIRECTION
PRES   - MEAN SEA LEVEL PRESSURE IN INCHES OF MERCURY
         F - FALLING PRESSURE   R - RISING PRESSURE
         S - STEADY PRESSURE
VSB    - VISIBILITY IN MILES
HX     - HEAT INDEX IN FAHRENHEIT
WCI    - WIND CHILL INDEX IN FAHRENHEIT
TC     - TEMPERATURE IN CELSIUS WHICH IS ALSO KNOWN AS
         TEMPERATURE IN CENTIGRADE
AFB    - AIR FORCE BASE
         LUKE AFB IS LUKE AIR FORCE BASE
         DAVIS-MONTHAN IS DAVIS-MONTHAN AIR FORCE BASE
NAS    - NAVAL AIR STATION
         EL CENTRO NAS IS EL CENTRO NAVAL AIR STATION
N/A    - NOT AVAILABLE




USA.gov is the U.S. government's official web portal to all federal, state and local government web resources and services.